Regional Weather Roundup
Issued by NWS

Home | Current Version | Previous Version | Text Only | Print | Product List | Glossary On
Versions: 1 2 3 4 5 6 7 8 9 10 11 12 13 14 15 16 17 18 19 20 21 22 23 24 25 26 27 28 29 30 31 32 33 34 35 36 37 38 39 40 41 42 43 44 45 46 47 48 49 50
000
ASUS44 KBMX 280610
RWRAL

ALABAMA REGIONAL WEATHER ROUNDUP
NATIONAL WEATHER SERVICE BIRMINGHAM AL
100 AM CDT MON JUL 28 2014

NOTE: "FAIR" INDICATES FEW OR NO CLOUDS BELOW 12,000 FEET
WITH NO SIGNIFICANT WEATHER AND/OR OBSTRUCTIONS TO VISIBILITY.

THE REMARK "TC" DENOTES TEMPERATURE IN DEGREES CELSIUS.

ALZ001>011-014-016>018-020-280700-
NORTH ALABAMA

CITY           SKY/WX    TMP DP  RH WIND       PRES   REMARKS
MUSCLE SHOALS  CLEAR     82  75  79 W8        29.95F
6HR MIN TEMP:  82; 6HR MAX TEMP:  87;

HUNTSVILLE     MOCLDY    79  75  87 SW6       29.93F
6HR MIN TEMP:  79; 6HR MAX TEMP:  87;

DECATUR        PTCLDY    82  76  81 W8        29.94S
6HR MIN TEMP:  82; 6HR MAX TEMP:  86;

HALEYVILLE     FAIR      79  76  90 W6        30.00F
6HR MIN TEMP:  79; 6HR MAX TEMP:  84;

GADSDEN        PTCLDY    81  72  74 W10       29.94F
6HR MIN TEMP:  79; 6HR MAX TEMP:  90;

$$

ALZ012-013-022-023-030>036-040>044-280700-
WEST CENTRAL ALABAMA

CITY           SKY/WX    TMP DP  RH WIND       PRES   REMARKS
TUSCALOOSA     CLEAR     80  74  81 CALM      29.97S
6HR MIN TEMP:  79; 6HR MAX TEMP:  91;

$$

ALZ015-024>027-033>036-040>044-280700-
CENTRAL ALABAMA

CITY           SKY/WX    TMP DP  RH WIND       PRES   REMARKS
BIRMINGHAM     PTCLDY    82  73  74 W7        29.99F
6HR MIN TEMP:  81; 6HR MAX TEMP:  92;

MONTGOMERY     PTCLDY    81  74  79 SW5       29.97F
6HR MIN TEMP:  81; 6HR MAX TEMP:  91;

SHELBY CO ARPT CLEAR     78  73  84 CALM      29.98S
6HR MIN TEMP:  78; 6HR MAX TEMP:  89;

MAXWELL AFB    PTCLDY    81  75  82 VRB2      29.97S
6HR MIN TEMP:  81; 6HR MAX TEMP:  91;

GREENVILLE     FAIR      80  75  84 SW7       29.99F
6HR MIN TEMP:  80; 6HR MAX TEMP:  90;

$$

ALZ019-021-028-029-037-038-045>048-280700-
EAST CENTRAL ALABAMA

CITY           SKY/WX    TMP DP  RH WIND       PRES   REMARKS
ANNISTON       MOCLDY    78  72  81 SW7       29.96F
6HR MIN TEMP:  78; 6HR MAX TEMP:  90;

ALEXANDER CITY CLEAR     81  73  78 CALM      30.00S
6HR MIN TEMP:  81; 6HR MAX TEMP:  91;

AUBURN         PTCLDY    79  70  73 W10G16    30.02S
6HR MIN TEMP:  79; 6HR MAX TEMP:  86;

$$

ALZ051>064-280700-
SOUTHWEST ALABAMA

CITY           SKY/WX    TMP DP  RH WIND       PRES   REMARKS
MOBILE         CLEAR     80  79  96 SW5       30.04F
6HR MIN TEMP:  80; 6HR MAX TEMP:  86;

BROOKLEY FIELD CLEAR     82  78  88 W7        30.04F HX  91
6HR MIN TEMP:  82; 6HR MAX TEMP:  87;

EVERGREEN      CLEAR     81  76  84 SW8       30.02S
6HR MIN TEMP:  81; 6HR MAX TEMP:  92;

$$

ALZ049-050-065>069-280700-
SOUTHEAST ALABAMA

CITY           SKY/WX    TMP DP  RH WIND       PRES   REMARKS
DOTHAN         PTCLDY    80  76  87 W8        30.03F
6HR MIN TEMP:  80; 6HR MAX TEMP:  90;

OZARK          CLEAR     79  76  91 SW6       30.00F
6HR MIN TEMP:  79; 6HR MAX TEMP:  89;

TROY           CLEAR     79  75  87 SW5       30.00S
6HR MIN TEMP:  78; 6HR MAX TEMP:  91;

EUFAULA        FAIR      81  76  84 SW5       29.97S
6HR MIN TEMP:  79; 6HR MAX TEMP:  89;

$$


USA.gov is the U.S. government's official web portal to all federal, state and local government web resources and services.